Providence, RI

4:50 PM EDT on September 20, 2017 (GMT -0400)
Green State

Weather History for KPVD - February, 2014

Change the Weather History Date:

Sunday, February 16, 2014

  Actual Average Record
Temperature  
Mean Temperature 28 °F 32 °F  
Max Temperature 32 °F 40 °F 60 °F (1910)
Min Temperature 23 °F 24 °F -10 °F (1943)
Degree Days  
Heating Degree Days 37 33  
Month to date heating degree days 593 545  
Since 1 July heating degree days 3849 3682  
Cooling Degree Days 0 0  
Month to date cooling degree days 0 0  
Year to date cooling degree days 0 0  
Moisture  
Dew Point 12 °F    
Average Humidity 61    
Maximum Humidity 85    
Minimum Humidity 36    
Precipitation  
Precipitation T in 0.12 in 2.32 in (1993)
Month to date precipitation 3.49 1.80  
Year to date precipitation 7.18 5.66  
Snow  
Snow 0.40 in 0.40 in 9.10 in (1958)
Month to date snowfall 16.0 5.0  
Since 1 July snowfall 38.1 24.2  
Snow Depth 6.00 in    
Sea Level Pressure  
Sea Level Pressure 29.77 in    
Wind  
Wind Speed 14 mph (WNW)    
Max Wind Speed 29 mph    
Max Gust Speed 37 mph    
Visibility 9 miles    
Events Snow    
T = Trace of Precipitation, MM = Missing Value Source: NWS Daily Summary

Daily Weather History Graph

Daily Weather History Graph

Search for Another Location

Airport or City:

Trip Planner

Search our weather history database for the weather conditions in past years. The results will help you decide how hot, cold, wet, or windy it might be!

Date:

Astronomy

Feb. 16, 2014 Rise Set
Actual Time 6:39 AM EST 5:20 PM EST
Civil Twilight 6:11 AM EST 5:48 PM EST
Nautical Twilight 5:38 AM EST 6:21 PM EST
Astronomical Twilight 5:06 AM EST 6:53 PM EST
Moon 7:16 PM EST (2/16) 7:06 AM EST (2/16)
Length of Visible Light 11h 37m
Length of Day
10h 40m
Full, 97% of the Moon is Illuminated
Feb 16
Full
Feb 22
Last Quarter
Mar 1
New
Mar 8
First Quarter
Mar 16
Full

Hourly Weather History & Observations

Time (EST) Temp. Windchill Dew Point Humidity Pressure Visibility Wind Dir Wind Speed Gust Speed Precip Events Conditions
12:21 AM 30.9 °F 20.2 °F 26.1 °F 82% 29.47 in 3.0 mi NW 15.0 mph 25.3 mph 0.00 in Snow Light Snow
12:51 AM 30.9 °F 19.1 °F 25.0 °F 79% 29.48 in 8.0 mi NW 18.4 mph 25.3 mph 0.00 in   Mostly Cloudy
1:51 AM 30.9 °F 19.4 °F 23.0 °F 72% 29.51 in 10.0 mi NW 17.3 mph 27.6 mph 0.00 in   Scattered Clouds
2:51 AM 28.0 °F 15.3 °F 17.1 °F 63% 29.57 in 4.0 mi NW 18.4 mph 36.8 mph 0.00 in   Clear
3:51 AM 27.0 °F 16.1 °F 17.1 °F 66% 29.61 in 10.0 mi NW 12.7 mph 20.7 mph 0.00 in   Clear
4:51 AM 25.0 °F 11.7 °F 14.0 °F 63% 29.65 in 10.0 mi NW 17.3 mph 26.5 mph N/A   Clear
5:51 AM 24.1 °F 13.1 °F 10.9 °F 57% 29.70 in 10.0 mi WNW 11.5 mph 21.9 mph N/A   Scattered Clouds
6:51 AM 23.0 °F 11.7 °F 10.0 °F 58% 29.73 in 10.0 mi WNW 11.5 mph - N/A   Partly Cloudy
7:51 AM 23.0 °F 12.4 °F 12.0 °F 63% 29.75 in 10.0 mi WNW 10.4 mph 19.6 mph N/A   Partly Cloudy
8:51 AM 25.0 °F 13.1 °F 12.0 °F 58% 29.78 in 10.0 mi WNW 13.8 mph 26.5 mph N/A   Partly Cloudy
9:51 AM 26.1 °F 14.0 °F 10.9 °F 53% 29.79 in 10.0 mi WNW 15.0 mph 24.2 mph 0.00 in   Scattered Clouds
10:51 AM 26.1 °F 12.3 °F 10.0 °F 51% 29.81 in 10.0 mi WNW 19.6 mph 25.3 mph N/A   Scattered Clouds
11:51 AM 28.9 °F 17.3 °F 10.9 °F 47% 29.81 in 10.0 mi West 16.1 mph 26.5 mph N/A   Mostly Cloudy
12:51 PM 30.0 °F 18.7 °F 10.0 °F 43% 29.81 in 10.0 mi NW 16.1 mph 21.9 mph N/A   Mostly Cloudy
1:51 PM 32.0 °F 21.6 °F 9.0 °F 38% 29.81 in 10.0 mi WNW 15.0 mph 21.9 mph N/A   Scattered Clouds
2:51 PM 30.9 °F 19.1 °F 9.0 °F 40% 29.83 in 10.0 mi WNW 18.4 mph 21.9 mph N/A   Mostly Cloudy
3:51 PM 30.9 °F 20.2 °F 8.1 °F 38% 29.84 in 10.0 mi WNW 15.0 mph - N/A   Partly Cloudy
4:51 PM 30.0 °F 22.4 °F 9.0 °F 41% 29.85 in 10.0 mi WNW 8.1 mph - N/A   Mostly Cloudy
5:51 PM 28.0 °F 18.1 °F 7.0 °F 41% 29.88 in 10.0 mi West 11.5 mph - N/A   Mostly Cloudy
6:51 PM 28.0 °F 17.5 °F 7.0 °F 41% 29.90 in 10.0 mi WNW 12.7 mph - N/A   Overcast
7:51 PM 26.1 °F 15.6 °F 8.1 °F 47% 29.91 in 10.0 mi WNW 11.5 mph - N/A   Overcast
8:53 PM 26.1 °F 17.6 °F 9.0 °F 49% 29.93 in 10.0 mi WNW 8.1 mph - N/A   Overcast
9:51 PM 25.0 °F 14.8 °F 9.0 °F 51% 29.96 in 10.0 mi WNW 10.4 mph - 0.00 in Snow Light Snow
10:51 PM 24.1 °F 12.5 °F 9.0 °F 53% 29.97 in 10.0 mi NW 12.7 mph 19.6 mph 0.00 in   Overcast
11:51 PM 23.0 °F 11.1 °F 8.1 °F 53% 29.99 in 10.0 mi WNW 12.7 mph 20.7 mph N/A   Mostly Cloudy